Right Now

Temperature THW Index 115.46°

96.42° 0.68

Humidity

63.21% 3

Dew Point

84.51° 0.53

Pressure

1016.93mb 0.14

Wind

4.83mph 0.87 S

Rain

0"

Last 12 Hours

Filter Columns:
Timestamp Temp Ground Temp Est. Temp THW Index Wet Bulb Humidity Dew Point Pressure Wind Speed Wind Gust Lightning Rainfall
375406 6/22/2024 12:06pm 96.42° F --° F 96.42° F 115.46° F 85.40° F 63.21% 84.51° F 1016.93mb 4.83mph S 10.30mph 0 0.000"
375405 6/22/2024 12:01pm 96.35° F --° F 96.35° F 111.88° F 84.70° F 60.44% 83.33° F 1016.88mb 5.38mph S 17.15mph 0 0.000"
375404 6/22/2024 11:56am 96.80° F --° F 96.80° F 115.63° F 85.37° F 61.62% 84.23° F 1016.83mb 4.34mph S 10.96mph 0 0.000"
375403 6/22/2024 11:51am 96.69° F --° F 96.69° F 114.96° F 85.34° F 61.93% 84.25° F 1016.85mb 4.92mph S 13.03mph 0 0.000"
375402 6/22/2024 11:46am 96.10° F --° F 96.10° F 114.84° F 84.94° F 62.47% 83.92° F 1016.93mb 3.72mph NNW 8.92mph 0 0.000"
375401 6/22/2024 11:41am 96.03° F --° F 96.03° F 121.20° F 86.17° F 68.31% 86.10° F 1017.05mb 3.20mph WNW 9.61mph 0 0.000"
375400 6/22/2024 11:36am 95.41° F --° F 95.41° F 118.73° F 86.04° F 70.43% 86.29° F 1017.04mb 5.47mph S 16.46mph 0 0.000"
375399 6/22/2024 11:31am 95.23° F --° F 95.23° F 112.18° F 84.79° F 65.38% 84.25° F 1017.10mb 6.16mph S 17.84mph 0 0.000"
375398 6/22/2024 11:26am 95.86° F --° F 95.86° F 114.81° F 85.25° F 64.80% 84.61° F 1017.20mb 5.17mph S 12.34mph 0 0.000"
375397 6/22/2024 11:21am 95.99° F --° F 95.99° F 113.91° F 85.77° F 66.62% 85.43° F 1017.19mb 8.18mph S 15.08mph 0 0.000"
375396 6/22/2024 11:15am 95.40° F --° F 95.40° F 117.26° F 86.04° F 70.56% 86.33° F 1017.20mb 6.94mph S 17.15mph 0 0.000"
375395 6/22/2024 11:10am 94.39° F --° F 94.39° F 116.58° F 85.69° F 73.64% 86.45° F 1017.23mb 7.01mph S 15.08mph 0 0.000"
375394 6/22/2024 11:05am 94.60° F --° F 94.60° F 111.03° F 84.86° F 68.35% 84.77° F 1017.32mb 7.91mph S 14.41mph 0 0.000"
375393 6/22/2024 11:00am 95.23° F --° F 95.23° F 117.28° F 85.40° F 68.17% 85.30° F 1017.35mb 4.00mph S 11.65mph 0 0.000"
375392 6/22/2024 10:55am 95.76° F --° F 95.76° F 114.49° F 85.72° F 67.45% 85.53° F 1017.37mb 7.68mph S 15.08mph 0 0.000"
375391 6/22/2024 10:50am 94.91° F --° F 94.91° F 120.34° F 86.20° F 73.73% 86.98° F 1017.47mb 5.49mph S 11.65mph 0 0.000"
375390 6/22/2024 10:45am 93.69° F --° F 93.69° F 116.15° F 84.95° F 73.20% 85.63° F 1017.48mb 4.51mph S 8.92mph 0 0.000"
375389 6/22/2024 10:40am 92.73° F --° F 92.73° F 107.87° F 83.70° F 71.34% 84.07° F 1017.54mb 7.38mph S 12.34mph 0 0.000"
375388 6/22/2024 10:35am 93.42° F --° F 93.42° F 115.25° F 84.65° F 72.94% 85.28° F 1017.64mb 4.18mph S 15.08mph 0 0.000"
375387 6/22/2024 10:30am 93.92° F --° F 93.92° F 119.15° F 85.03° F 72.40% 85.57° F 1017.65mb 1.77mph NNW 5.49mph 0 0.000"
375386 6/22/2024 10:25am 94.84° F --° F 94.84° F 118.02° F 85.76° F 71.84% 86.25° F 1017.64mb 5.52mph S 10.30mph 0 0.000"
375385 6/22/2024 10:19am 94.21° F --° F 94.21° F 117.93° F 85.93° F 75.80% 87.01° F 1017.64mb 7.22mph S 12.34mph 0 0.000"
375384 6/22/2024 10:14am 92.68° F --° F 92.68° F 124.00° F 86.03° F 84.78% 88.39° F 1017.65mb 4.46mph S 12.34mph 0 0.000"
375383 6/22/2024 10:09am 91.49° F --° F 91.49° F 120.95° F 85.11° F 86.24% 87.67° F 1017.71mb 3.75mph NW 13.03mph 0 0.000"
375382 6/22/2024 10:04am 91.69° F --° F 91.69° F 116.32° F 84.54° F 81.64% 86.47° F 1017.60mb 4.69mph S 12.34mph 0 0.000"
375381 6/22/2024 9:59am 92.07° F --° F 92.07° F 120.56° F 85.12° F 82.85% 87.21° F 1017.58mb 3.31mph S 8.92mph 0 0.000"
375380 6/22/2024 9:54am 92.46° F --° F 92.46° F 113.84° F 84.88° F 79.24% 86.46° F 1017.63mb 7.75mph S 12.34mph 0 0.000"
375379 6/22/2024 9:49am 92.53° F --° F 92.53° F 118.63° F 85.47° F 82.17% 87.45° F 1017.64mb 6.30mph S 13.03mph 0 0.000"
375378 6/22/2024 9:44am 91.85° F --° F 91.85° F 120.91° F 85.33° F 85.49% 87.80° F 1017.69mb 4.57mph S 7.54mph 0 0.000"
375377 6/22/2024 9:39am 90.66° F --° F 90.66° F 122.73° F 85.08° F 91.52% 88.37° F 1017.68mb 3.43mph NW 8.23mph 0 0.000"
375376 6/22/2024 9:34am 90.18° F --° F 90.18° F 113.12° F 84.25° F 89.09% 87.21° F 1017.75mb 8.16mph S 17.15mph 0 0.000"
375375 6/22/2024 9:29am 90.57° F --° F 90.57° F 125.49° F 85.37° F 94.00% 88.97° F 1017.80mb 2.76mph S 8.23mph 0 0.000"
375374 6/22/2024 9:24am 91.13° F --° F 91.13° F 128.35° F 85.97° F 94.37% 89.63° F 1017.77mb 3.08mph NW 8.23mph 0 0.000"
375373 6/22/2024 9:18am 91.24° F --° F 91.24° F 126.49° F 86.08° F 94.36% 89.73° F 1017.87mb 5.33mph S 10.30mph 0 0.000"
375372 6/22/2024 9:13am 90.21° F --° F 90.21° F 126.91° F 85.65° F 98.70% 89.87° F 1017.83mb 4.21mph S 8.92mph 0 0.000"
375371 6/22/2024 9:08am 88.81° F --° F 88.81° F 117.41° F 84.41° F 100.00% 88.81° F 1017.74mb 7.40mph S 11.65mph 0 0.000"
375370 6/22/2024 9:03am 87.48° F --° F 87.48° F 115.49° F 83.07° F 100.00% 87.48° F 1018.01mb 2.92mph S 9.61mph 0 0.000"
375369 6/22/2024 8:58am 87.33° F --° F 87.33° F 109.98° F 82.93° F 100.00% 87.33° F 1017.97mb 7.38mph S 15.77mph 0 0.000"
375368 6/22/2024 8:53am 87.40° F --° F 87.40° F 111.78° F 83.00° F 100.00% 87.40° F 1018.02mb 6.02mph S 9.61mph 0 0.000"
375367 6/22/2024 8:48am 87.67° F --° F 87.67° F 116.24° F 83.27° F 100.00% 87.67° F 1018.15mb 3.10mph N 9.61mph 0 0.000"
375366 6/22/2024 8:43am 88.09° F --° F 88.09° F 118.97° F 83.69° F 100.00% 88.09° F 1018.18mb 2.51mph NNW 4.11mph 0 0.000"
375365 6/22/2024 8:38am 87.30° F --° F 87.30° F 114.63° F 82.89° F 100.00% 87.30° F 1018.15mb 2.90mph NNW 5.49mph 0 0.000"
375364 6/22/2024 8:33am 85.96° F --° F 85.96° F 109.07° F 81.55° F 100.00% 85.96° F 1018.17mb 2.14mph NNW 3.43mph 0 0.000"
375363 6/22/2024 8:28am 85.50° F --° F 85.50° F 106.81° F 81.08° F 100.00% 85.50° F 1018.20mb 2.28mph N 5.49mph 0 0.000"
375362 6/22/2024 8:23am 85.48° F --° F 85.48° F 102.46° F 81.06° F 100.00% 85.48° F 1018.18mb 6.25mph S 11.65mph 0 0.000"
375361 6/22/2024 8:18am 85.75° F --° F 85.75° F 108.16° F 81.33° F 100.00% 85.75° F 1018.20mb 2.09mph N 10.96mph 0 0.000"
375360 6/22/2024 8:13am 85.98° F --° F 85.98° F 109.66° F 81.57° F 100.00% 85.98° F 1018.19mb 1.68mph N 4.80mph 0 0.000"
375359 6/22/2024 8:07am 86.29° F --° F 86.29° F 111.72° F 81.88° F 100.00% 86.29° F 1018.19mb 1.10mph NNW 4.80mph 0 0.000"
375358 6/22/2024 8:02am 85.08° F --° F 85.08° F 105.83° F 80.66° F 100.00% 85.08° F 1018.16mb 1.43mph NNW 4.11mph 0 0.000"
375357 6/22/2024 7:57am 83.07° F --° F 83.07° F 96.87° F 78.63° F 100.00% 83.07° F 1018.15mb 1.79mph N 3.43mph 0 0.000"
375356 6/22/2024 7:52am 82.22° F --° F 82.22° F 93.10° F 77.78° F 100.00% 82.22° F 1018.10mb 2.14mph N 4.80mph 0 0.000"
375355 6/22/2024 7:47am 81.93° F --° F 81.93° F 91.56° F 77.49° F 100.00% 81.93° F 1017.99mb 2.53mph NNW 5.49mph 0 0.000"
375354 6/22/2024 7:42am 81.75° F --° F 81.75° F 92.05° F 77.31° F 100.00% 81.75° F 1017.96mb 1.43mph N 2.74mph 0 0.000"
375353 6/22/2024 7:37am 81.54° F --° F 81.54° F 90.49° F 77.09° F 100.00% 81.54° F 1017.82mb 2.14mph N 4.11mph 0 0.000"
375352 6/22/2024 7:32am 81.39° F --° F 81.39° F 92.22° F 76.94° F 100.00% 81.39° F 1017.84mb 0.00mph -- 0.69mph 0 0.000"
375351 6/22/2024 7:27am 81.46° F --° F 81.46° F 92.01° F 77.02° F 100.00% 81.46° F 1017.77mb 0.44mph N 3.43mph 0 0.000"
375350 6/22/2024 7:22am 81.81° F --° F 81.81° F 93.81° F 77.36° F 100.00% 81.81° F 1017.77mb 0.00mph -- 0.00mph 0 0.000"
375349 6/22/2024 7:17am 82.17° F --° F 82.17° F 95.20° F 77.72° F 100.00% 82.17° F 1017.91mb 0.00mph -- 0.00mph 0 0.000"
375348 6/22/2024 7:12am 80.55° F --° F 80.55° F 89.01° F 76.09° F 100.00% 80.55° F 1017.71mb 0.11mph N 1.38mph 0 0.000"
375347 6/22/2024 7:07am 78.71° F --° F 78.71° F 82.85° F 74.24° F 100.00% 78.71° F 1017.76mb 0.00mph -- 0.00mph 0 0.000"
375346 6/22/2024 7:02am 78.75° F --° F 78.75° F 82.98° F 74.28° F 100.00% 78.75° F 1017.74mb 0.00mph -- 0.00mph 0 0.000"
375345 6/22/2024 6:57am 78.84° F --° F 78.84° F 83.28° F 74.37° F 100.00% 78.84° F 1017.62mb 0.00mph -- 0.00mph 0 0.000"
375344 6/22/2024 6:52am 78.98° F --° F 78.98° F 83.73° F 74.52° F 100.00% 78.98° F 1017.50mb 0.00mph -- 0.00mph 0 0.000"
375343 6/22/2024 6:47am 79.16° F --° F 79.16° F 84.33° F 74.70° F 100.00% 79.16° F 1017.50mb 0.00mph -- 0.00mph 0 0.000"
375342 6/22/2024 6:42am 79.47° F --° F 79.47° F 85.37° F 75.00° F 100.00% 79.47° F 1017.56mb 0.00mph -- 0.00mph 0 0.000"
375341 6/22/2024 6:37am 79.86° F --° F 79.86° F 86.70° F 75.40° F 100.00% 79.86° F 1017.47mb 0.00mph -- 0.00mph 0 0.000"
375340 6/22/2024 6:31am 80.40° F --° F 80.40° F 88.60° F 75.95° F 100.00% 80.40° F 1017.41mb 0.00mph -- 0.00mph 0 0.000"
375339 6/22/2024 6:26am 80.13° F --° F 80.13° F 87.64° F 75.68° F 100.00% 80.13° F 1017.45mb 0.00mph -- 0.00mph 0 0.000"
375338 6/22/2024 6:21am 78.80° F --° F 78.80° F 83.15° F 74.33° F 100.00% 78.80° F 1017.35mb 0.00mph -- 0.00mph 0 0.000"
375337 6/22/2024 6:16am 78.51° F --° F 78.51° F 82.21° F 74.04° F 100.00% 78.51° F 1017.24mb 0.00mph -- 0.00mph 0 0.000"
375336 6/22/2024 6:11am 78.76° F --° F 78.76° F 83.02° F 74.30° F 100.00% 78.76° F 1017.22mb 0.00mph -- 0.00mph 0 0.000"
375335 6/22/2024 6:06am 79.07° F --° F 79.07° F 84.03° F 74.61° F 100.00% 79.07° F 1017.20mb 0.00mph -- 0.00mph 0 0.000"
375334 6/22/2024 6:01am 79.43° F --° F 79.43° F 85.23° F 74.97° F 100.00% 79.43° F 1017.20mb 0.00mph -- 0.00mph 0 0.000"
375333 6/22/2024 5:56am 79.86° F --° F 79.86° F 86.70° F 75.40° F 100.00% 79.86° F 1017.25mb 0.00mph -- 0.00mph 0 0.000"
375332 6/22/2024 5:51am 80.38° F --° F 80.38° F 88.30° F 75.93° F 100.00% 80.38° F 1017.31mb 0.21mph N 2.74mph 0 0.000"
375331 6/22/2024 5:46am 80.33° F --° F 80.33° F 85.59° F 75.88° F 100.00% 80.33° F 1017.18mb 2.57mph NNW 4.11mph 0 0.000"
375330 6/22/2024 5:41am 79.23° F --° F 79.23° F 83.88° F 74.77° F 100.00% 79.23° F 1017.20mb 0.64mph NNW 2.74mph 0 0.000"
375329 6/22/2024 5:36am 78.96° F --° F 78.96° F 83.67° F 74.50° F 100.00% 78.96° F 1017.26mb 0.00mph -- 0.00mph 0 0.000"
375328 6/22/2024 5:31am 79.27° F --° F 79.27° F 84.70° F 74.81° F 100.00% 79.27° F 1017.30mb 0.00mph -- 0.00mph 0 0.000"
375327 6/22/2024 5:26am 79.65° F --° F 79.65° F 85.98° F 75.19° F 100.00% 79.65° F 1017.16mb 0.00mph -- 0.00mph 0 0.000"
375326 6/22/2024 5:21am 80.06° F --° F 80.06° F 87.40° F 75.60° F 100.00% 80.06° F 1017.13mb 0.00mph -- 0.00mph 0 0.000"
375325 6/22/2024 5:16am 80.64° F --° F 80.64° F 89.46° F 76.18° F 100.00% 80.64° F 1017.18mb 0.00mph -- 0.00mph 0 0.000"
375324 6/22/2024 5:11am 80.35° F --° F 80.35° F 88.30° F 75.89° F 100.00% 80.35° F 1017.19mb 0.11mph N 1.38mph 0 0.000"
375323 6/22/2024 5:06am 79.12° F --° F 79.12° F 84.18° F 74.66° F 100.00% 79.12° F 1017.11mb 0.02mph N 0.69mph 0 0.000"
375322 6/22/2024 5:01am 78.67° F --° F 78.67° F 82.72° F 74.21° F 100.00% 78.67° F 1017.07mb 0.00mph -- 0.00mph 0 0.000"
375321 6/22/2024 4:55am 78.82° F --° F 78.82° F 83.21° F 74.35° F 100.00% 78.82° F 1017.09mb 0.00mph -- 0.00mph 0 0.000"
375320 6/22/2024 4:50am 79.03° F --° F 79.03° F 83.90° F 74.57° F 100.00% 79.03° F 1017.05mb 0.00mph -- 0.00mph 0 0.000"
375319 6/22/2024 4:45am 79.25° F --° F 79.25° F 84.63° F 74.79° F 100.00% 79.25° F 1016.92mb 0.00mph -- 0.00mph 0 0.000"
375318 6/22/2024 4:40am 79.56° F --° F 79.56° F 85.67° F 75.10° F 100.00% 79.56° F 1016.89mb 0.00mph -- 0.00mph 0 0.000"
375317 6/22/2024 4:35am 79.83° F --° F 79.83° F 86.60° F 75.37° F 100.00% 79.83° F 1016.92mb 0.00mph -- 0.00mph 0 0.000"
375316 6/22/2024 4:30am 80.20° F --° F 80.20° F 87.89° F 75.75° F 100.00% 80.20° F 1016.95mb 0.00mph -- 0.00mph 0 0.000"
375315 6/22/2024 4:25am 80.69° F --° F 80.69° F 89.64° F 76.24° F 100.00% 80.69° F 1016.90mb 0.00mph -- 0.00mph 0 0.000"
375314 6/22/2024 4:20am 81.27° F --° F 81.27° F 91.08° F 76.82° F 100.00% 81.27° F 1016.98mb 0.64mph NNW 2.74mph 0 0.000"
375313 6/22/2024 4:15am 80.92° F --° F 80.92° F 89.73° F 76.47° F 100.00% 80.92° F 1016.99mb 0.69mph NNW 2.74mph 0 0.000"
375312 6/22/2024 4:10am 79.79° F --° F 79.79° F 86.44° F 75.33° F 100.00% 79.79° F 1016.91mb 0.02mph N 0.69mph 0 0.000"
375311 6/22/2024 4:05am 79.36° F --° F 79.36° F 85.00° F 74.90° F 100.00% 79.36° F 1016.94mb 0.00mph -- 0.00mph 0 0.000"
375310 6/22/2024 4:00am 79.56° F --° F 79.56° F 85.67° F 75.10° F 100.00% 79.56° F 1017.00mb 0.00mph -- 0.00mph 0 0.000"
375309 6/22/2024 3:55am 79.70° F --° F 79.70° F 86.15° F 75.24° F 100.00% 79.70° F 1016.92mb 0.00mph -- 0.00mph 0 0.000"
375308 6/22/2024 3:50am 79.93° F --° F 79.93° F 86.94° F 75.48° F 100.00% 79.93° F 1016.91mb 0.00mph -- 0.00mph 0 0.000"
375307 6/22/2024 3:45am 80.24° F --° F 80.24° F 88.03° F 75.78° F 100.00% 80.24° F 1016.90mb 0.00mph -- 0.00mph 0 0.000"
375306 6/22/2024 3:40am 80.55° F --° F 80.55° F 89.13° F 76.09° F 100.00% 80.55° F 1016.85mb 0.00mph -- 0.00mph 0 0.000"
375305 6/22/2024 3:35am 80.94° F --° F 80.94° F 90.55° F 76.49° F 100.00% 80.94° F 1016.87mb 0.00mph -- 0.00mph 0 0.000"
375304 6/22/2024 3:30am 81.46° F --° F 81.46° F 92.48° F 77.02° F 100.00% 81.46° F 1016.94mb 0.00mph -- 0.00mph 0 0.000"
375303 6/22/2024 3:25am 81.90° F --° F 81.90° F 92.08° F 77.45° F 100.00% 81.90° F 1016.88mb 1.93mph NNW 3.43mph 0 0.000"
375302 6/22/2024 3:19am 81.00° F --° F 81.00° F 88.62° F 76.55° F 100.00% 81.00° F 1017.04mb 2.00mph NNW 3.43mph 0 0.000"
375301 6/22/2024 3:14am 80.08° F --° F 80.08° F 87.47° F 75.62° F 100.00% 80.08° F 1016.95mb 0.00mph -- 0.00mph 0 0.000"
375300 6/22/2024 3:09am 80.31° F --° F 80.31° F 88.28° F 75.86° F 100.00% 80.31° F 1017.02mb 0.00mph -- 0.00mph 0 0.000"
375299 6/22/2024 3:04am 80.64° F --° F 80.64° F 89.46° F 76.18° F 100.00% 80.64° F 1016.96mb 0.00mph -- 0.00mph 0 0.000"
375298 6/22/2024 2:59am 81.03° F --° F 81.03° F 90.88° F 76.58° F 100.00% 81.03° F 1016.98mb 0.00mph -- 0.00mph 0 0.000"
375297 6/22/2024 2:54am 81.50° F --° F 81.50° F 92.63° F 77.05° F 100.00% 81.50° F 1017.03mb 0.00mph -- 0.00mph 0 0.000"
375296 6/22/2024 2:49am 81.91° F --° F 81.91° F 94.17° F 77.47° F 100.00% 81.91° F 1017.10mb 0.02mph NNW 0.69mph 0 0.000"
375295 6/22/2024 2:44am 81.28° F --° F 81.28° F 91.75° F 76.84° F 100.00% 81.28° F 1017.11mb 0.05mph N 0.69mph 0 0.000"
375294 6/22/2024 2:39am 80.62° F --° F 80.62° F 89.38° F 76.17° F 100.00% 80.62° F 1017.09mb 0.00mph -- 0.00mph 0 0.000"
375293 6/22/2024 2:34am 80.96° F --° F 80.96° F 90.62° F 76.51° F 100.00% 80.96° F 1017.09mb 0.00mph -- 0.00mph 0 0.000"
375292 6/22/2024 2:29am 81.37° F --° F 81.37° F 92.14° F 76.93° F 100.00% 81.37° F 1017.14mb 0.00mph -- 0.00mph 0 0.000"
375291 6/22/2024 2:24am 81.86° F --° F 81.86° F 94.00° F 77.42° F 100.00% 81.86° F 1017.17mb 0.00mph -- 0.00mph 0 0.000"
375290 6/22/2024 2:19am 82.33° F --° F 82.33° F 95.65° F 77.89° F 100.00% 82.33° F 1017.16mb 0.16mph N 1.38mph 0 0.000"
375289 6/22/2024 2:14am 81.79° F --° F 81.79° F 93.43° F 77.34° F 100.00% 81.79° F 1017.34mb 0.28mph N 2.07mph 0 0.000"
375288 6/22/2024 2:09am 80.67° F --° F 80.67° F 89.56° F 76.22° F 100.00% 80.67° F 1017.36mb 0.00mph -- 0.69mph 0 0.000"
375287 6/22/2024 2:04am 80.58° F --° F 80.58° F 89.24° F 76.13° F 100.00% 80.58° F 1017.35mb 0.00mph -- 0.00mph 0 0.000"
375286 6/22/2024 1:59am 80.91° F --° F 80.91° F 90.44° F 76.46° F 100.00% 80.91° F 1017.42mb 0.00mph -- 0.00mph 0 0.000"
375285 6/22/2024 1:54am 81.23° F --° F 81.23° F 91.62° F 76.78° F 100.00% 81.23° F 1017.54mb 0.00mph -- 0.00mph 0 0.000"
375284 6/22/2024 1:49am 81.50° F --° F 81.50° F 92.63° F 77.05° F 100.00% 81.50° F 1017.60mb 0.00mph -- 0.00mph 0 0.000"
375283 6/22/2024 1:43am 81.86° F --° F 81.86° F 94.00° F 77.42° F 100.00% 81.86° F 1017.68mb 0.00mph -- 0.00mph 0 0.000"
375282 6/22/2024 1:38am 82.29° F --° F 82.29° F 95.67° F 77.85° F 100.00% 82.29° F 1017.57mb 0.00mph -- 0.00mph 0 0.000"
375281 6/22/2024 1:33am 82.80° F --° F 82.80° F 97.62° F 78.36° F 100.00% 82.80° F 1017.61mb 0.07mph N 1.38mph 0 0.000"
375280 6/22/2024 1:28am 82.98° F --° F 82.98° F 96.58° F 78.54° F 100.00% 82.98° F 1017.66mb 1.72mph NNW 2.74mph 0 0.000"
375279 6/22/2024 1:23am 82.35° F --° F 82.35° F 94.52° F 77.91° F 100.00% 82.35° F 1017.62mb 1.29mph NNW 2.74mph 0 0.000"
375278 6/22/2024 1:18am 82.15° F --° F 82.15° F 95.12° F 77.71° F 100.00% 82.15° F 1017.67mb 0.00mph -- 0.00mph 0 0.000"
375277 6/22/2024 1:13am 82.58° F --° F 82.58° F 96.82° F 78.14° F 100.00% 82.58° F 1017.67mb 0.00mph -- 0.00mph 0 0.000"
375276 6/22/2024 1:08am 83.14° F --° F 83.14° F 99.07° F 78.70° F 100.00% 83.14° F 1017.67mb 0.00mph -- 0.00mph 0 0.000"
375275 6/22/2024 1:03am 83.73° F --° F 83.73° F 101.44° F 79.30° F 100.00% 83.73° F 1017.76mb 0.07mph N 1.38mph 0 0.000"
375274 6/22/2024 12:58am 83.62° F --° F 83.62° F 100.98° F 79.19° F 100.00% 83.62° F 1017.88mb 0.07mph N 0.69mph 0 0.000"
375273 6/22/2024 12:53am 82.94° F --° F 82.94° F 98.04° F 78.50° F 100.00% 82.94° F 1017.99mb 0.21mph N 2.74mph 0 0.000"
375272 6/22/2024 12:48am 82.63° F --° F 82.63° F 97.01° F 78.20° F 100.00% 82.63° F 1017.99mb 0.00mph -- 0.00mph 0 0.000"
375271 6/22/2024 12:43am 83.03° F --° F 83.03° F 98.63° F 78.59° F 100.00% 83.03° F 1017.93mb 0.00mph -- 0.00mph 0 0.000"
375270 6/22/2024 12:38am 83.50° F --° F 83.50° F 100.56° F 79.07° F 100.00% 83.50° F 1017.95mb 0.00mph -- 0.00mph 0 0.000"
375269 6/22/2024 12:33am 84.09° F --° F 84.09° F 103.04° F 79.66° F 100.00% 84.09° F 1017.98mb 0.00mph -- 0.00mph 0 0.000"
375268 6/22/2024 12:28am 84.49° F --° F 84.49° F 103.38° F 80.06° F 100.00% 84.49° F 1017.92mb 1.29mph NNW 3.43mph 0 0.000"
375267 6/22/2024 12:23am 84.07° F --° F 84.07° F 102.90° F 79.65° F 100.00% 84.07° F 1018.00mb 0.05mph N 0.69mph 0 0.000"
375266 6/22/2024 12:17am 83.41° F --° F 83.41° F 100.01° F 78.97° F 100.00% 83.41° F 1017.95mb 0.16mph N 2.07mph 0 0.000"
375265 6/22/2024 12:12am 83.75° F --° F 83.75° F 101.60° F 79.32° F 100.00% 83.75° F 1017.98mb 0.00mph -- 0.00mph 0 0.000"